Regional Weather Roundup
Issued by NWS Sterling, VA

Home | Current Version | Previous Version | Text Only | Print | Product List | Glossary On
Versions: 1 2 3 4 5 6 7 8 9 10 11 12 13 14 15 16 17 18 19 20 21 22 23 24 25 26 27
000
ASUS41 KLWX 251210
RWRLWX

REGIONAL WEATHER ROUNDUP
NATIONAL WEATHER SERVICE BALTIMORE MD/WASHINGTON DC
800 AM EDT SUN SEP 25 2016

Note: "FAIR" indicates few or no clouds below 12,000 feet
with no significant weather and/or obstructions to visibility.
 TC=TEMPERATURE CELSIUS

 * =Non NWS site. Station does not report precipitation (e.g. rain,
    snow, etc.), thunder, or fog.

DCZ001-MDZ009-015-VAZ040>042-051-053>054-251300-
WASHINGTON METRO

CITY           SKY/WX    TMP DP  RH WIND       PRES   REMARKS
WASHINGTON NAT MOSUNNY   60  48  64 N9        30.23R
DULLES         MOSUNNY   56  47  71 NE8       30.23R
ANDREWS AFB    SUNNY     56  48  76 NE7       30.21R
FT BELVOIR     MOSUNNY   59  47  64 VRB2      30.22R
QUANTICO         N/A     64  54  69 NE12      30.22R
COLLEGE PARK*  SUNNY     54  46  76 CALM      30.22S
LEESBURG*      MOSUNNY   55  50  82 N3        30.25R
MANASSAS*      CLOUDY    57  52  82 N6        30.23R
GAITHERSBURG*  SUNNY     52  43  71 NE5       30.27R

$$

MDZ006>007-011-014-251300-
BALTIMORE METRO

CITY           SKY/WX    TMP DP  RH WIND       PRES   REMARKS
BWI AIRPORT    MOSUNNY   56  46  69 N6        30.22R
MD SCIENCE CTR   N/A     59  43  55 MISG      30.23R
MARTIN STATE   SUNNY     54  52  94 CALM      30.24R
ANNAPOLIS      SUNNY     62  53  72 N7        30.21R
FORT MEADE*    SUNNY     52  48  87 N3        30.25R

$$

MDZ012-015-019>023-251300-
MARYLAND EASTERN SHORE

CITY           SKY/WX    TMP DP  RH WIND       PRES   REMARKS
OCEAN CITY     SUNNY     61  56  83 N7        30.18R
SALISBURY      SUNNY     57  54  89 N6        30.19R
BAY BRIDGE AP* SUNNY     59  46  63 MISG      30.22R
CAMBRIDGE*     SUNNY     55  50  82 NE3       30.20R
EASTON*        SUNNY     55  48  76 NE6       30.24R

$$

MDZ017>025-251300-
SOUTHERN MARYLAND

CITY           SKY/WX    TMP DP  RH WIND       PRES   REMARKS
PATUXENT RIVER MOSUNNY   62  49  62 NE13      30.20R
ST INIGOES     MOSUNNY   59  55  87 NE5       30.19R
LEONARDTOWN*   SUNNY     57  52  82 CALM      30.22R

$$

MDZ003>005-251300-
NORTH CENTRAL MARYLAND

CITY           SKY/WX    TMP DP  RH WIND       PRES   REMARKS
FREDERICK*     SUNNY     48  48 100 CALM      30.27R
HAGERSTOWN APT SUNNY     52  44  74 N3        30.23R

$$

MDZ501>502-251300-
WESTERN MARYLAND

CITY           SKY/WX    TMP DP  RH WIND       PRES   REMARKS
OAKLAND*       CLEAR     46  41  81 SE10      30.22S
CUMBERLAND*    PTCLDY    52  50  93 CALM      30.27S

$$

VAZ025>031-251300-
SHENANDOAH VALLEY

CITY           SKY/WX    TMP DP  RH WIND       PRES   REMARKS
WINCHESTER*    MOSUNNY   54  45  71 CALM      30.23R
FRONT ROYAL*   PTSUNNY   54  46  76 N3        30.23R
LURAY*         CLOUDY    57  52  82 NE5       30.21R
NEW MARKET*    CLOUDY   N/A N/A N/A N8        30.21R
STAUNTON*      DRIZZLE   60  59  98 N6        30.23R
WAYNESBORO*    CLOUDY    60  57  89 E7        30.21R

$$

WVZ021-048>050-054>055-251300-
EASTERN WEST VIRGINIA PANHANDLE

CITY           SKY/WX    TMP DP  RH WIND       PRES   REMARKS
MARTINSBURG    SUNNY     54  44  69 N3        30.23R
PETERSBURG*    CLOUDY    60  52  75 CALM      30.22R

$$

VAZ036>039-050-251300-
CENTRAL FOOTHILLS

CITY           SKY/WX    TMP DP  RH WIND       PRES   REMARKS
CHARLOTTESVILL CLOUDY    66  61  84 N3        30.19S
CULPEPER*      CLOUDY    60  52  73 NE5       30.23R
ORANGE*          N/A     63  63 100 N6        30.22R
GORDONSVILLE*  NOT AVBL
WARRENTON*     CLOUDY    59  49  68 NE7       30.22R

$$

VAZ055>057-251300-
NORTH AND CENTRAL PIEDMONT

CITY           SKY/WX    TMP DP  RH WIND       PRES   REMARKS
FREDERICKSBRG* CLOUDY    63  57  81 NE8       30.20R
STAFFORD*      CLOUDY    60  56  88 N5        30.25R

$$

NCZ024-NYZ072-PAZ021-071-VAZ022-071-251300-
OTHER REGIONAL OBSERVATIONS

CITY           SKY/WX    TMP DP  RH WIND       PRES   REMARKS
NEW YORK CITY  SUNNY     54  41  61 CALM      30.23R
PHILADELPHIA   MOSUNNY   55  42  61 N8        30.22R
PITTSBURGH     CLEAR     51  47  86 NE5       30.19R
ROANOKE        CLOUDY    68  63  84 SE5       30.21R
RICHMOND       PTSUNNY   64  61  90 NE7       30.19R
RALEIGH        CLOUDY    71  67  87 NE7       30.16R

$$

ANZ530>537-251300-
MARINE OBSERVATIONS

STATION/POSITION TIME  TEMP    WIND        PRES
                       AIR SEA DIR/SP/G
                 (UTC) (F)     (DEG/KT/KT) (MB)
THOMAS PT LIGHT  1200   62 75   40/ 15/ 17 1024.2R
BALT KEY BRIDGE  1148   58     350/  8/  9 1023.4R
COVE POINT       1148   62      50/ 14/ 19 1023.2R
LEWISETTA        1148   66 74   50/  8/ 12 1021.9R
SOLOMONS ISLAND  1148   63 76   40/  7/  9   N/A
PINEY POINT      1148           50/  9/ 11   N/A

$$





USA.gov is the U.S. government's official web portal to all federal, state and local government web resources and services.